[[{"header":{"parameterUnit":"m.s-1","parameterCategory":1,"la1":30.2991,"la2":30.254,"lo1":-89.0895,"lo2":-89.0444,"dy":0.0017,"dx":0.0017,"nx":28,"ny":28,"refTime":"2025-07-31T21:00:00:Z","depth":0,"parameterNumber":2,"parameterNumberName":"U-component_of_WINDS"},"data":[0,0,0,0,0,0,0,0,0,0,0,0,0,0,0,0,0,0,0,0,0,0,0,0,0,0,0,0,0,0,0,0,0,0,0,0,0,0,0,0,0,0,0,0,0,0,0,0,0,0,0,0,0,0,0,0,0,0,3.7467,3.7468,0,3.7574,3.7575,3.7577,3.7502,3.7499,3.7496,3.7493,3.7605,3.7611,3.7617,0,0,0,0,0,0,0,0,0,0,0,0,0,3.7202,3.7207,3.7467,3.7468,3.747,3.7574,3.7576,3.7577,3.7503,3.7499,3.7495,3.7491,3.7603,3.761,3.7617,0,0,0,0,0,0,0,0,0,0,0,0,0,3.7314,3.7209,3.7467,3.7445,3.7444,3.7574,3.7576,3.7577,3.7504,3.7499,3.7494,3.7489,3.76,3.7609,3.7618,3.7775,0,0,3.7646,3.765,0,0,0,0,0,0,0,0,3.7308,3.7324,3.7447,3.7447,3.7446,3.752,3.7523,3.7644,3.7505,3.7481,3.7493,3.7487,3.7581,3.7591,3.7622,3.778,3.7785,3.7647,3.7652,3.7656,3.7659,0,0,0,0,0,0,0,3.73,3.7319,3.7509,3.7449,3.7449,3.7432,3.7442,3.7546,3.7558,3.7483,3.7478,3.7492,3.7579,3.7614,3.7624,3.7787,3.7647,3.7655,3.766,3.7664,3.8081,3.8086,0,0,0,0,0,0,3.7294,3.7313,3.7506,3.7513,3.7363,3.7441,3.7452,3.7501,3.7557,3.756,3.7496,3.7488,3.76,3.7614,3.7628,3.7815,3.7656,3.7665,3.767,3.8075,3.8082,3.8088,0,0,0,0,0,0,3.7289,3.7312,3.7502,3.7412,3.7434,3.745,3.7506,3.7506,3.754,3.7566,3.7568,3.7528,3.7597,3.7615,3.7739,3.7818,3.7669,3.7677,3.8069,3.8078,3.8085,3.8191,0,0,0,0,0,0,3.7281,3.731,3.7369,3.7413,3.7439,3.761,3.7511,3.7512,3.7556,3.7546,3.7597,3.7601,3.7594,3.7726,3.7748,3.7828,3.7684,3.8062,3.8073,3.8083,3.8181,3.8202,3.8221,0,0,0,0,0,3.7272,3.7395,3.7372,3.7396,3.7513,3.7615,3.763,3.7619,3.7562,3.7622,3.7639,3.7599,3.7807,3.7739,3.7764,3.7848,3.8057,3.807,3.8082,3.8172,3.8198,3.822,0,0,0,0,0,0,3.7358,3.74,3.7375,3.7516,3.7562,3.7602,3.7676,3.7647,3.7711,3.77,3.7686,3.7698,3.7828,3.7851,3.7775,3.8003,3.7923,3.7941,3.7983,3.8008,3.8028,3.8018,3.7692,0,0,0,0,0,3.7394,3.7473,3.7505,3.7626,3.765,3.766,3.7704,3.7692,3.774,3.7759,3.7786,3.7835,3.7911,3.7961,3.8033,3.8185,3.8195,3.8255,3.8275,3.8291,3.8306,3.839,3.8417,3.813,3.8129,3.8129,0,0,3.7468,3.75,3.755,3.7644,3.7678,3.7761,3.7677,3.7767,3.7828,3.7773,3.7891,3.7914,3.7967,3.8106,3.8169,3.8129,3.8389,3.8308,3.832,3.8326,3.8405,3.8432,3.8457,3.8138,3.8137,3.8135,0,0,3.7644,3.7677,3.7781,3.7818,3.7872,3.7878,3.7904,3.7949,3.7961,3.8079,3.804,3.8114,3.8246,3.8286,3.8324,3.852,3.8485,3.8544,3.8647,3.8728,3.8751,3.8771,3.884,3.8865,3.856,3.856,3.856,0,3.7728,3.785,3.7838,3.7932,3.7975,3.793,3.8036,3.8074,3.8149,3.818,3.8135,3.83,3.8333,3.8481,3.853,3.8562,3.8591,3.8536,3.8749,3.8769,3.8787,3.8853,3.8879,3.8567,3.8566,3.8565,3.8564,0,3.7951,3.8037,3.8115,3.8188,3.8241,3.834,3.8345,3.84,3.8386,3.8397,3.852,3.8559,3.8638,3.8673,3.866,3.8821,3.8795,3.875,3.8668,3.8821,3.8883,3.8908,3.8576,3.8574,3.8572,3.857,0,0,3.818,3.8249,3.8277,3.8311,3.8369,3.8435,3.8535,3.8612,3.8659,3.8714,3.8797,3.8912,3.8871,3.8914,3.8906,3.8978,3.913,3.8924,3.8925,3.896,3.931,3.9342,3.9371,3.911,3.9114,3.9118,3.9305,0,3.8358,3.8529,3.8524,3.8684,3.8763,3.8724,3.8811,3.8857,3.8872,3.8943,3.896,3.9041,3.8981,3.9007,3.9077,3.9097,3.92,3.9084,3.9187,3.919,3.9171,3.9404,3.9437,3.9611,3.933,3.9334,3.9337,0,3.8587,3.8649,3.8818,3.8866,3.8899,3.8977,3.9048,3.9117,3.917,3.9176,3.9226,3.9207,3.9309,3.9228,3.9369,3.929,3.9333,3.935,3.9357,3.9363,3.9271,3.9415,3.9667,3.9692,3.9375,3.9372,3.9369,0,3.8735,3.8862,3.8979,3.901,3.9069,3.9125,3.9153,3.9201,3.9248,3.9312,3.9343,3.9419,3.946,3.9519,3.9522,3.9462,3.9665,3.9584,3.9673,3.9673,3.9715,3.9711,3.9975,3.9747,3.9746,3.9746,3.9745,0,3.8933,3.9037,3.9047,3.9118,3.9235,3.923,3.9345,3.9368,3.9412,3.9488,3.9461,3.9534,3.9534,3.9609,3.9613,3.973,3.9749,3.9757,3.9756,3.9758,3.9757,3.9783,3.977,3.9753,3.9751,3.975,3.9749,0,3.9116,3.9127,3.9252,3.93,3.9314,3.9398,3.9439,3.9508,3.9523,3.962,3.9643,3.9665,3.9752,3.9762,3.9864,3.9866,4.0007,3.9994,3.9988,3.9986,4.0074,4.0065,4.0361,4.04,4.0149,4.0151,4.0153,0,3.9239,3.9319,3.9376,3.9425,3.9456,3.9536,3.9585,3.9584,3.9636,3.9705,3.9766,3.9851,3.9918,4.006,4.0086,4.0164,4.0152,4.0251,4.0163,4.0163,4.0152,4.0146,4.0154,4.0266,4.0269,4.0271,4.0273,0,3.9458,3.946,3.9531,3.9606,3.9665,3.9724,3.9779,3.9821,3.9828,3.9889,3.9977,4.003,4.0135,4.0219,4.0297,4.0327,4.0302,4.0301,4.0326,4.0327,4.032,4.0324,4.0032,4.0293,4.0291,4.029,4.0289,4.0288,3.9614,3.9683,3.9734,3.9815,3.9857,3.991,3.9977,4.0001,4.0075,4.0159,4.0156,4.0254,4.0308,4.041,4.0446,4.0524,4.0491,4.0527,4.0536,4.0544,4.0552,4.031,4.0539,4.0538,4.0537,4.0537,4.0537,0,3.9829,3.9861,3.9936,4.0014,4.0079,4.0051,4.0111,4.0167,4.0253,4.0306,4.0373,4.0477,4.056,4.0594,4.0676,4.0732,4.0722,4.0753,4.0747,4.0755,4.0577,4.0547,4.0759,4.0759,4.0759,4.0759,4.0759,4.0759,3.9948,4.0063,4.0073,4.021,4.0242,4.0337,4.0374,4.0424,4.0465,4.0582,4.065,4.0673,4.0718,4.0804,4.088,4.0888,4.0918,4.0954,4.0957,4.079,4.0767,4.0746,4.0717,4.0961,4.0962,4.1128,4.1129,4.113]},{"header":{"parameterUnit":"m.s-1","parameterCategory":1,"la1":30.2991,"la2":30.254,"lo1":-89.0895,"lo2":-89.0444,"dy":0.0017,"dx":0.0017,"nx":28,"ny":28,"refTime":"2025-07-31T21:00:00:Z","depth":0,"parameterNumber":3,"parameterNumberName":"V-component_of_WINDS"},"data":[0,0,0,0,0,0,0,0,0,0,0,0,0,0,0,0,0,0,0,0,0,0,0,0,0,0,0,0,0,0,0,0,0,0,0,0,0,0,0,0,0,0,0,0,0,0,0,0,0,0,0,0,0,0,0,0,0,0,1.5966,1.5968,0,1.6157,1.6159,1.6161,1.614,1.6137,1.6134,1.6131,1.6332,1.634,1.6348,0,0,0,0,0,0,0,0,0,0,0,0,0,1.5586,1.5593,1.5966,1.5968,1.5971,1.6156,1.6159,1.6162,1.614,1.6137,1.6133,1.613,1.6329,1.6339,1.6348,0,0,0,0,0,0,0,0,0,0,0,0,0,1.5762,1.5596,1.5966,1.5982,1.5986,1.6156,1.6159,1.6162,1.6141,1.6137,1.6132,1.6128,1.6326,1.6338,1.635,1.6517,0,0,1.6387,1.6393,0,0,0,0,0,0,0,0,1.5752,1.5776,1.5978,1.5982,1.5986,1.612,1.6099,1.6281,1.6142,1.6082,1.6131,1.6126,1.6265,1.6282,1.6328,1.6526,1.6535,1.6388,1.6396,1.6401,1.6405,0,0,0,0,0,0,0,1.574,1.5767,1.6042,1.5981,1.5986,1.5981,1.6001,1.6133,1.6197,1.6087,1.6086,1.6109,1.6267,1.6316,1.6333,1.6538,1.6388,1.6399,1.6406,1.6411,1.6879,1.6884,0,0,0,0,0,0,1.5723,1.5757,1.6036,1.6047,1.5855,1.5992,1.6014,1.6081,1.6196,1.6209,1.6112,1.6107,1.6298,1.6318,1.634,1.654,1.6401,1.6412,1.642,1.6874,1.688,1.6886,0,0,0,0,0,0,1.5715,1.5748,1.6028,1.5902,1.5937,1.6003,1.6079,1.6088,1.6137,1.6215,1.6226,1.6151,1.6295,1.6322,1.6472,1.6547,1.6418,1.6429,1.6868,1.6876,1.6883,1.6945,0,0,0,0,0,0,1.5704,1.5745,1.5809,1.5904,1.5944,1.6156,1.6084,1.6095,1.6158,1.6153,1.6254,1.6267,1.6293,1.6454,1.6484,1.6562,1.6439,1.6862,1.6872,1.6881,1.6936,1.6954,1.6968,0,0,0,0,0,1.569,1.5821,1.5812,1.5846,1.6025,1.6161,1.6184,1.621,1.6164,1.6229,1.6278,1.6264,1.6534,1.6469,1.6503,1.6586,1.6857,1.6869,1.688,1.6929,1.695,1.6968,0,0,0,0,0,0,1.5736,1.5834,1.5825,1.599,1.6067,1.6157,1.624,1.6232,1.6326,1.6317,1.6347,1.6371,1.6521,1.6568,1.6494,1.6752,1.6689,1.6708,1.6715,1.6736,1.6751,1.6737,1.6449,0,0,0,0,0,1.5765,1.5866,1.5946,1.6083,1.6122,1.6174,1.6234,1.6247,1.6329,1.6362,1.6423,1.6504,1.6606,1.6674,1.6773,1.6943,1.6964,1.7016,1.7032,1.7045,1.7061,1.7151,1.7175,1.6923,1.6923,1.6923,0,0,1.5826,1.5892,1.5954,1.6094,1.6155,1.6259,1.6202,1.6315,1.6393,1.638,1.6524,1.6571,1.6663,1.6822,1.6896,1.6867,1.7135,1.7059,1.7069,1.7078,1.7165,1.7189,1.721,1.6931,1.693,1.6928,0,0,1.5991,1.6051,1.6171,1.6232,1.6324,1.6357,1.6386,1.6477,1.6506,1.665,1.6642,1.6735,1.6912,1.6977,1.7034,1.7218,1.7208,1.725,1.7334,1.7422,1.7441,1.7459,1.7523,1.7546,1.7266,1.7266,1.7266,0,1.6056,1.6211,1.6234,1.6347,1.6408,1.6398,1.6519,1.6578,1.6699,1.6742,1.6707,1.6926,1.6988,1.7161,1.7205,1.7252,1.7285,1.7239,1.7436,1.7454,1.7471,1.7533,1.7557,1.727,1.727,1.7269,1.7269,0,1.6285,1.6393,1.6479,1.6592,1.6663,1.678,1.682,1.6889,1.6895,1.6932,1.7077,1.715,1.7262,1.7305,1.7314,1.7479,1.7457,1.7429,1.7367,1.7499,1.7557,1.7581,1.7276,1.7275,1.7273,1.7272,0,0,1.6486,1.6607,1.6638,1.6688,1.6787,1.6871,1.6987,1.7094,1.7152,1.7235,1.7332,1.748,1.7453,1.7517,1.7533,1.761,1.7749,1.7573,1.7575,1.7601,1.7933,1.7952,1.7979,1.7742,1.7747,1.7751,1.7924,0,1.6659,1.6862,1.6884,1.7065,1.7163,1.7153,1.7254,1.7326,1.7362,1.7452,1.7493,1.7597,1.7555,1.7593,1.7669,1.7716,1.7816,1.7704,1.7833,1.7837,1.7809,1.801,1.8032,1.8193,1.7947,1.7951,1.7954,0,1.6889,1.6974,1.7164,1.7246,1.7288,1.7378,1.7476,1.7562,1.7643,1.7664,1.7733,1.7737,1.7856,1.7789,1.7952,1.7875,1.7929,1.796,1.7967,1.798,1.7903,1.8027,1.8245,1.8268,1.7991,1.7988,1.7985,0,1.7013,1.7177,1.731,1.7354,1.7454,1.7516,1.7561,1.7637,1.7699,1.7785,1.7825,1.7925,1.798,1.8057,1.8088,1.8037,1.825,1.8185,1.827,1.8269,1.8316,1.8312,1.8544,1.8352,1.8352,1.8351,1.8351,0,1.7204,1.732,1.7367,1.745,1.7579,1.7603,1.773,1.7773,1.7839,1.793,1.7929,1.8014,1.805,1.814,1.8166,1.8296,1.8321,1.8341,1.8347,1.8341,1.8338,1.8377,1.8366,1.8358,1.8356,1.8355,1.8354,0,1.7366,1.7402,1.7547,1.7628,1.7651,1.7742,1.7812,1.7892,1.7926,1.804,1.8068,1.8122,1.8229,1.8267,1.8397,1.8414,1.8564,1.8561,1.8536,1.8537,1.8619,1.8611,1.8883,1.892,1.8705,1.8707,1.8708,0,1.7484,1.7573,1.7662,1.7721,1.7767,1.7863,1.7925,1.7952,1.8016,1.8112,1.818,1.8285,1.837,1.854,1.8592,1.8691,1.8689,1.8778,1.8704,1.8695,1.8689,1.8683,1.8691,1.8792,1.8794,1.8796,1.8797,0,1.769,1.7703,1.7791,1.7886,1.7959,1.8035,1.8109,1.8158,1.8195,1.8268,1.8375,1.8441,1.8571,1.8675,1.8775,1.8822,1.8816,1.8819,1.8844,1.8839,1.882,1.883,1.8573,1.8813,1.8812,1.8811,1.881,1.8809,1.7833,1.791,1.7984,1.8082,1.8139,1.8207,1.8284,1.8327,1.8416,1.8523,1.8533,1.8648,1.8724,1.8858,1.8908,1.8999,1.8975,1.9011,1.902,1.9028,1.9033,1.8806,1.9018,1.9017,1.9017,1.9016,1.9016,0,1.8038,1.8083,1.8173,1.8274,1.8351,1.8336,1.8416,1.8481,1.8581,1.8652,1.8734,1.8856,1.8956,1.9014,1.9114,1.9175,1.9174,1.92,1.9195,1.9206,1.905,1.9018,1.9198,1.9198,1.9198,1.9198,1.9198,1.9198,1.8153,1.8281,1.8302,1.8458,1.8504,1.8614,1.8661,1.8723,1.8779,1.8914,1.8996,1.9032,1.9098,1.9201,1.9292,1.9306,1.9343,1.9371,1.9383,1.9236,1.9217,1.9199,1.9169,1.9379,1.9379,1.9531,1.9532,1.9533]}]]